Location: Newark
(25.0000°N, 73.5000°E)
Time: 12:37:50
(UTC+00:00)

RS-15 - Pass Details

Date: 23 February 2020
Orbit: 1898 x 2146 km, 64.8° (Epoch: 06 April)

Event Time Altitude Azimuth Distance (km) Brightness Sun altitude
Rises 14:53:30 0° 215° (SW) 5,407 10.8 -25.4°
Reaches altitude 10° 14:56:55 10° 219° (SW) 4,379 10.3 -26.2°
Maximum altitude 15:07:53 61° 298° (WNW) 2,117 8.3 -28.7°
Drops below altitude 10° 15:18:40 10° 18° (NNE) 4,286 9.7 -31.1°
Sets 15:22:00 0° 22° (NNE) 5,286 10.1 -31.8°
